Location: Auckland
(36.8670°S, 174.7670°E)
Time: 00:08:09
(UTC+12:00)

A-11 Canister half - Pass Details

Date: 22 July 2019
Orbit: 1526 x 1683 km, 47.3° (Epoch: 21 August)

Event Time Altitude Azimuth Distance (km) Brightness Sun altitude
Rises 06:58:21 0° 336° (NNW) 4,662 11.5 -6.2°
Reaches altitude 10° 07:01:36 10° 343° (NNW) 3,689 11.1 -5.6°
Maximum altitude 07:10:01 40° 48° (NE) 2,142 10.5 -4.0°
Drops below altitude 10° 07:18:39 10° 113° (ESE) 3,783 11.8 -2.5°
Sets 07:22:00 0° 120° (ESE) 4,793 12.2 -1.8°
